Location: Ku?niki
(51.4449°N, 17.8974°E)
Time: 01:04:37
(UTC+00:00)

Cosmos 2279 Rocket - Pass Details

Date: 18 September 2020
Orbit: 964 x 979 km, 82.9° (Epoch: 23 October)

Event Time Altitude Azimuth Distance (km) Brightness Sun altitude
Exits shadow 20:20:49 63° 220° (SW) 1,089 4.1 -29.2°
Maximum altitude 20:21:49 76° 281° (WNW) 1,013 4.0 -29.3°
Drops below altitude 10° 20:28:07 10° 8° (N) 2,744 6.8 -30.0°
Sets 20:30:39 0° 10° (N) 3,696 7.6 -30.2°
